Folgueroles





Hora UTC 07:45
Temperatura 3.0 ºC
Humitat 92.0 %
Pressió 1019.0 hPa
Pluja 0.0 mm
Velocitat vent 1.6 km/h
Direcció vent NNE

Dades diàries 2022-12-01



Hora UTC (hivern +1h; estiu +2h)
Temperatura (ºC) Humitat (%) Pressió (hPa) Velocitat vent (km/h) Precipitació (mm)
Hora UTC Aire Humitat Pressió Vel. Dir. Vel. Max Dir. Intent. màx 5 min.
00:05 4.3 89.0 1019.1 0.0 NNE 0.0 0.0
00:10 4.3 89.0 1019.0 0.0 NNE 0.0 0.0
00:15 4.4 89.0 1019.0 0.0 NNE 0.0 0.0
00:20 4.4 89.0 1019.0 0.0 NNE 0.0 0.0
00:25 4.4 89.0 1018.9 0.0 NNE 0.0 0.0
00:30 4.5 89.0 1018.8 0.0 NNE 0.0 0.0
00:35 4.5 89.0 1018.8 0.0 NNE 0.0 0.0
00:40 4.5 90.0 1018.8 0.0 NNE 1.6 0.0
00:45 4.5 89.0 1018.9 0.0 NNE 0.0 0.0
00:50 4.4 89.0 1018.8 0.0 NNE 0.0 0.0
00:55 4.4 89.0 1018.8 0.0 NNE 0.0 0.0
01:00 4.4 90.0 1018.7 0.0 NNE 0.0 0.0
01:05 4.4 90.0 1018.7 0.0 NNE 0.0 0.0
01:10 4.4 90.0 1018.7 0.0 NNE 0.0 0.0
01:15 4.4 90.0 1018.6 0.0 NNE 0.0 0.0
01:20 4.4 90.0 1018.7 0.0 NNE 0.0 0.0
01:25 4.6 91.0 1018.7 0.0 NNE 0.0 0.0
01:30 4.6 91.0 1018.6 0.0 NNE 0.0 0.0
01:35 4.6 90.0 1018.6 0.0 NNE 0.0 0.0
01:40 4.6 90.0 1018.6 0.0 NNE 0.0 0.0
01:45 4.6 90.0 1018.7 0.0 NNE 0.0 0.0
01:50 4.6 90.0 1018.7 0.0 NNE 0.0 0.0
01:55 4.3 89.0 1018.7 0.0 NNE 1.6 0.0
02:00 4.2 89.0 1018.6 0.0 NNE 1.6 0.0
02:05 4.1 89.0 1018.6 0.0 NNE 0.0 0.0
02:10 3.9 89.0 1018.6 0.0 NNE 0.0 0.0
02:15 3.7 88.0 1018.6 0.0 NNE 0.0 0.0
02:20 3.4 88.0 1018.7 0.0 NNE 0.0 0.0
02:25 3.2 88.0 1018.6 0.0 NNE 0.0 0.0
02:30 3.2 90.0 1018.5 0.0 NNE 0.0 0.0
02:35 3.2 90.0 1018.6 0.0 NNE 0.0 0.0
02:40 3.2 90.0 1018.6 0.0 NNE 1.6 0.0
02:45 3.2 91.0 1018.5 0.0 NNE 1.6 0.0
02:50 3.1 91.0 1018.6 0.0 NNE 0.0 0.0
02:55 3.1 91.0 1018.7 0.0 NNE 0.0 0.0
03:00 3.1 91.0 1018.5 0.0 NNE 0.0 0.0
03:05 3.0 91.0 1018.5 0.0 NNE 0.0 0.0
03:10 2.9 91.0 1018.5 0.0 NNE 0.0 0.0
03:15 3.0 91.0 1018.5 0.0 NNE 0.0 0.0
03:20 2.9 91.0 1018.5 0.0 NNE 0.0 0.0
03:25 3.0 91.0 1018.5 0.0 NNE 0.0 0.0
03:30 3.0 91.0 1018.5 0.0 NNE 0.0 0.0
03:35 2.9 91.0 1018.4 0.0 NNE 0.0 0.0
03:40 2.9 91.0 1018.4 0.0 NNE 0.0 0.0
03:45 2.9 92.0 1018.4 0.0 NNE 0.0 0.0
03:50 3.0 92.0 1018.3 0.0 NNE 0.0 0.0
03:55 3.1 92.0 1018.3 0.0 NNE 0.0 0.0
04:00 3.1 92.0 1018.3 0.0 NNE 0.0 0.0
04:05 3.2 92.0 1018.3 0.0 NNE 0.0 0.0
04:10 3.2 92.0 1018.3 0.0 NNE 0.0 0.0
04:15 3.2 92.0 1018.2 0.0 NNE 0.0 0.0
04:20 3.2 92.0 1018.2 0.0 NNE 0.0 0.0
04:25 3.3 92.0 1018.3 0.0 NNE 0.0 0.0
04:30 3.3 92.0 1018.2 0.0 NNE 0.0 0.0
04:35 3.3 92.0 1018.3 0.0 NNE 0.0 0.0
04:40 3.3 92.0 1018.1 0.0 NNE 0.0 0.0
04:45 3.3 92.0 1018.3 0.0 NNE 0.0 0.0
04:50 3.3 92.0 1018.2 0.0 NNE 0.0 0.0
04:55 3.2 91.0 1018.2 0.0 NNE 0.0 0.0
05:00 2.9 91.0 1018.2 0.0 NNE 0.0 0.0
05:05 2.7 90.0 1018.2 0.0 NNE 0.0 0.0
05:10 2.6 91.0 1018.2 0.0 NNE 0.0 0.0
05:15 2.6 91.0 1018.2 0.0 NNE 0.0 0.0
05:20 2.6 91.0 1018.2 0.0 NNE 0.0 0.0
05:25 2.4 91.0 1018.2 0.0 NNE 0.0 0.0
05:30 2.4 91.0 1018.2 0.0 NNE 0.0 0.0
05:35 2.2 91.0 1018.2 0.0 NNE 0.0 0.0
05:40 2.1 91.0 1018.2 0.0 NNE 0.0 0.0
05:45 2.1 91.0 1018.2 0.0 NNE 0.0 0.0
05:50 1.9 91.0 1018.3 0.0 NNE 0.0 0.0
05:55 1.9 91.0 1018.3 0.0 NNE 1.6 0.0
06:00 1.9 91.0 1018.4 0.0 NNE 1.6 0.0
06:05 1.9 92.0 1018.4 0.0 NNE 0.0 0.0
06:10 2.1 92.0 1018.3 0.0 NNE 0.0 0.0
06:15 2.2 92.0 1018.5 0.0 NNE 0.0 0.0
06:20 2.3 93.0 1018.4 0.0 NNE 0.0 0.0
06:25 2.4 93.0 1018.5 0.0 NNE 0.0 0.0
06:30 2.4 92.0 1018.4 0.0 NNE 0.0 0.0
06:35 2.5 92.0 1018.5 0.0 NNE 0.0 0.0
06:40 2.5 92.0 1018.6 0.0 NNE 0.0 0.0
06:45 2.5 92.0 1018.6 0.0 NNE 0.0 0.0
06:50 2.5 92.0 1018.7 0.0 NNE 0.0 0.0
06:55 2.5 92.0 1018.7 0.0 NNE 0.0 0.0
07:00 2.5 92.0 1018.7 0.0 NNE 0.0 0.0
07:05 2.6 93.0 1018.8 0.0 NNE 0.0 0.0
07:10 2.6 93.0 1018.8 0.0 NNE 0.0 0.0
07:15 2.6 92.0 1018.8 0.0 NNE 0.0 0.0
07:20 2.6 93.0 1018.8 0.0 NNE 0.0 0.0
07:25 2.7 93.0 1018.9 0.0 NNE 0.0 0.0
07:30 2.7 93.0 1018.9 0.0 NNE 0.0 0.0
07:35 2.8 93.0 1018.9 0.0 NNE 0.0 0.0
07:40 2.9 93.0 1019.1 0.0 NNE 0.0 0.0
07:45 3.0 92.0 1019.0 1.6 NNE 1.6 0.0
Màxima 5.1 93.0 1019.1 1.6 NNE 1.6 0.0
Mínima 1.9 88.0 1018.1
Total 0.0